Location: Proctor
(47.8934°N, 114.3048°W)
Time: 11:46:06
(UTC+00:00)

Transit 4A - Pass Details

Date: 03 July 2024
Orbit: 870 x 973 km, 66.8° (Epoch: 13 July)

Event Time Altitude Azimuth Distance (km) Brightness Sun altitude
Rises 06:34:27 0° 283° (WNW) 3,459 11.3 -17.6°
Reaches altitude 10° 06:38:07 10° 306° (NW) 2,527 10.9 -17.8°
Maximum altitude 06:41:24 15° 341° (NNW) 2,186 11.0 -17.9°
Drops below altitude 10° 06:44:44 10° 15° (NNE) 2,549 11.1 -18.1°
Sets 06:48:27 0° 38° (NE) 3,507 11.5 -18.2°
